Terminal Aerodrome Forecast
Issued by NWS

Home | Current Version | Previous Version | Text Only | Print | Product List | Glossary On
Versions: 1 2 3 4 5 6 7 8 9 10 11 12 13 14 15 16 17 18 19 20 21 22 23 24 25 26 27 28
230
FTUS44 KFWD 240520
TAFDAL
TAF
KDAL 240520Z 2406/2506 34014KT P6SM FEW300
     FM241700 33019G29KT P6SM SKC
     FM250100 33012KT P6SM SKC=

USA.gov is the U.S. government's official web portal to all federal, state and local government web resources and services.